Tracking 19145 objects as of 26-Apr-2018
HD Live streaming from Space Station
objects crossing your sky now

ARTEMIS

Track ARTEMIS now!
ARTEMIS is classified as:


NORAD ID: 26863
Int'l Code: 2001-029A
Perigee: 36,046.9 km
Apogee: 36,096.8 km
Inclination: 13.0 °
Period: 1,450.3 minutes
Semi major axis: 42442 km
RCS: 10 m2 (large)
Launch date: July 12, 2001
Source: European Space Agency (ESA)
Launch site: FRENCH GUIANA (FRGUI)

An 18-month rescue mission recovered the satellite; develop European capabilities in satellite communications; test new technologies; support development of European navigation system (EGNOS, c. 2010).
aabbcc
Your satellite tracking list
Your tracking list is empty




NASA's NSSDC Master Catalog

Two Line Element Set (TLE):
1 26863U 01029A   18114.34271837 +.00000014 +00000-0 +00000-0 0  9992
2 26863 013.0120 029.9643 0005879 078.1544 116.5611 00.99287840014301
Source of the keplerian elements: AFSPC